This demonstration page uses our WeatherBlox Daily Observations layout. Learn more.

Left ArrowRight Arrow

Hourly Observations for February 23, 2015

Temp ( °F °C ) Dew Point ( °F °C ) Humidity (%) Winds ( mph kmh ) Pressure ( in mb ) Visibility ( mi km ) Precip ( " mm )
12:53 am 00:53 Cloudy 19 -7.2 10 -12.2 68 68 NNW 10 17 30.56 1035 10 16.0934 N/A
1:53 am 01:53 Cloudy 17 -8.3 7 -13.9 64 64 N 10 17 30.58 1036 10 16.0934 N/A
2:53 am 02:53 Cloudy 15 -9.4 3 -16.1 59 59 N 12 19 30.6 1036 10 16.0934 N/A
3:53 am 03:53 Cloudy 14 -10 2 -16.7 58 58 N 13 20 30.61 1037 10 16.0934 N/A
4:53 am 04:53 Mostly Clear 12 -11.1 1 -17.2 61 61 N 6 9 30.62 1037 10 16.0934 N/A
5:53 am 05:53 Clear 10 -12.2 -2 -18.9 58 58 N 6 9 30.64 1038 10 16.0934 N/A
6:53 am 06:53 Clear with Light Snow 4 -15.6 -4 -20 69 69 N 5 7 30.65 1038 9 14.48406 N/A
7:53 am 07:53 Sunny N/A -5 -20.6 79 79 NNW 5 7 30.67 1039 9 14.48406 N/A
8:53 am 08:53 Sunny 8 -13.3 -1 -18.3 66 66 N 7 11 30.69 1039 10 16.0934 N/A
9:53 am 09:53 Sunny 11 -11.7 -1 -18.3 58 58 NE 7 11 30.7 1040 10 16.0934 N/A
10:53 am 10:53 Sunny 13 -10.6 -1 -18.3 54 54 ENE 5 7 30.71 1040 10 16.0934 N/A
11:53 am 11:53 Sunny with Light Snow 14 -10 -2 -18.9 49 49 NNE 10 17 30.71 1040 10 16.0934 N/A
12:53 pm 12:53 Sunny 15 -9.4 -1 -18.3 49 49 N 9 15 30.69 1039 10 16.0934 N/A
1:53 pm 13:53 Sunny 15 -9.4 -1 -18.3 49 49 NNE 7 11 30.65 1038 10 16.0934 N/A
2:53 pm 14:53 Sunny 16 -8.9 -2 -18.9 45 45 NNW 9 15 30.63 1037 10 16.0934 N/A
3:53 pm 15:53 Sunny 16 -8.9 -2 -18.9 45 45 NNE 7 11 30.63 1037 10 16.0934 N/A
4:53 pm 16:53 Sunny 16 -8.9 -2 -18.9 45 45 N N/A 30.61 1037 10 16.0934 N/A
5:53 pm 17:53 Sunny 14 -10 -3 -19.4 47 47 N 6 9 30.59 1036 10 16.0934 N/A
6:53 pm 18:53 Clear with Light Snow 7 -13.9 -4 -20 60 60 N 6 9 30.56 1035 9 14.48406 N/A
7:53 pm 19:53 Clear 7 -13.9 -5 -20.6 57 57 N 6 9 30.55 1035 9 14.48406 N/A
8:53 pm 20:53 Clear N/A -8 -22.2 69 69 N N/A 30.54 1034 10 16.0934 N/A
9:53 pm 21:53 Clear -6 -21.1 -12 -24.4 75 75 N N/A 30.51 1033 10 16.0934 N/A
10:53 pm 22:53 Clear with Light Snow -7 -21.7 -11 -23.9 82 82 N N/A 30.49 1033 9 14.48406 N/A
11:53 pm 23:53 Clear -10 -23.3 -14 -25.6 81 81 N N/A 30.46 1032 10 16.0934 N/A

Powered by AerisWeather